Weather Roundup
Issued by NWS Chicago, IL

Home | Current Version | Previous Version | Text Only | Print | Product List | Glossary Off
Versions: 1 2 3 4 5 6 7 8 9 10 11 12 13 14 15 16 17 18 19 20 21 22 23 24 25 26 27 28 29 30 31 32 33 34 35 36 37 38 39 40 41 42 43 44 45 46 47 48 49 50

791
NZUS59 KLOT 240703
HRRLOT

CHICAGO AREA WEATHER ROUNDUP
NATIONAL WEATHER SERVICE CHICAGO/ROMEOVILLE IL
100 AM CST FRI FEB 24 2017

NOTE: "FAIR" INDICATES FEW OR NO CLOUDS BELOW 12,000 FEET WITH NO
SIGNIFICANT WEATHER AND/OR OBSTRUCTIONS TO VISIBILITY.

* THESE STATIONS ARE NOT UNDER NWS QUALITY CONTROL. THEY ALSO MAY NOT
  REPORT WEATHER SUCH AS PRECIPITATION OR FOG.

ILZ005-006-012>014-019>023-240800-
NORTHEAST ILLINOIS

CITY           SKY/WX    TMP DP  RH WIND       PRES   REMARKS
OHARE          LGT RAIN  40  37  89 NE21G30   29.63F
MIDWAY         CLOUDY    41  38  89 NE16G22   29.61F
AURORA         CLOUDY    41  38  89 E21G26    29.59F
LANSING*       CLOUDY    40  40 100 N7        29.61F FOG
JOLIET*        TSTM      43  42  97 NE8       29.60F
WAUKEGAN       LGT RAIN  36  34  92 NE21G35   29.63F
DUPAGE AIRPORT CLOUDY    39  36  89 NE20      29.61F
WHEELING       LGT RAIN  37  35  92 NE17G29   29.63F
KANKAKEE*      CLOUDY    44  43  97 SE10      29.58F FOG
MORRIS*        CLOUDY    42  40  95 NE7       29.57F
LEWIS AIRPORT* TSTM      40  40 100 NE12      29.60F
NORTHERLY ISL    N/A     38  37  97 MISG        N/A
$$

WIZ051-052-058>065-066-070>072-240800-
SOUTHEAST WISCONSIN

CITY           SKY/WX    TMP DP  RH WIND       PRES   REMARKS
MILWAUKEE      LGT RAIN  36  33  89 NE28G35   29.69F
KENOSHA*       LGT RAIN  36  33  89 NE29G36   29.62F
RACINE*        LGT RAIN  36  33  89 NE22G32   29.68F
WAUKESHA       FLURRIES  32  32 100 NE15G25   29.69F WCI  22
WEST BEND      LGT RAIN  32  32 100 NE20G31   29.73F WCI  20
$$

INZ001>003-010>013-019-020-240800-
NORTHWEST INDIANA

CITY           SKY/WX    TMP DP  RH WIND       PRES   REMARKS
GARY*          CLOUDY    41  40  97 N7        29.62F
MICHIGAN CITY* NOT AVBL
RENSSELAER*    NOT AVBL
VALPARAISO     LGT RAIN  49  48  97 NE7       29.62F FOG
$$

LMZ740>746-240800-
SOUTHERN LAKE MICHIGAN

STATION/POSITION TIME  SKY/WX   TEMP WIND        PRES    VSBY
                                AIR  DIR/SP/G
                 (UTC)          (F)  (DEG/KT/KT) (MB)    (MI)
HARRISON CRIB    0640            39   10/ 21/ 22   N/A
BURNHAM HARBOR   0700            39  360/ 14/ 18   N/A
CALUMET HARBOR   0630            38  340/ 13/ 18 1003.1F
BURNS HARBOR     0630            37   60/  7/  8 1003.4F
MICHIGAN CITY    0640            48   80/  8/ 12   N/A
$$

ABBREVIATIONS USED IN REMARKS
   TC - TEMPERATURE IN CELSIUS
  WCI - WIND CHILL INDEX
   HX - HEAT INDEX
  VSB - VISIBILITY
$$




USA.gov is the U.S. government's official web portal to all federal, state and local government web resources and services.